• In Uzbekistan
  • List of Countries
  • For 7 days
  • Water Temperature
  • Satellite Maps
  • Weather Map
  • Weather Widgets
  • user-avatar
    Login

    Hourly Weather Bad Kohlgrub

    Today, 22 April, Sunday

    Time Temperature Precipitation Wind Pressure Humidity
    00:00 +13°C° 0.4 mm 1 mps 686 mmHg 88%
    01:00 +13°C° 0 mm 2 mps 686 mmHg 85%
    02:00 +12°C° 0.1 mm 2 mps 686 mmHg 85%
    03:00 +12°C° 0.1 mm 2 mps 686 mmHg 86%
    04:00 +12°C° 0.1 mm 1 mps 686 mmHg 87%
    05:00 +12°C° 0 mm 1 mps 686 mmHg 85%
    06:00 +13°C° 0 mm 1 mps 686 mmHg 83%
    07:00 +14°C° 0 mm 1 mps 686 mmHg 81%
    08:00 +18°C° 0 mm 1 mps 686 mmHg 71%
    09:00 +20°C° 0 mm 1 mps 687 mmHg 61%
    10:00 +23°C° 0 mm 1 mps 687 mmHg 51%
    11:00 +23°C° 0.1 mm 1 mps 687 mmHg 47%
    12:00 +24°C° 0.1 mm 2 mps 687 mmHg 44%
    13:00 +25°C° 0.1 mm 2 mps 687 mmHg 40%
    14:00 +24°C° 0.1 mm 2 mps 687 mmHg 42%
    15:00 +24°C° 0.1 mm 2 mps 686 mmHg 44%
    16:00 +23°C° 0.1 mm 2 mps 686 mmHg 47%
    17:00 +21°C° 0.2 mm 1 mps 686 mmHg 55%
    18:00 +19°C° 0.2 mm 1 mps 685 mmHg 64%
    19:00 +15°C° 0.2 mm 0 mps 685 mmHg 72%
    20:00 +15°C° 0.3 mm 1 mps 685 mmHg 74%
    21:00 +15°C° 0.3 mm 1 mps 685 mmHg 76%
    22:00 +14°C° 0.3 mm 2 mps 685 mmHg 78%
    23:00 +13°C° 0.1 mm 2 mps 686 mmHg 79%

    Tomorrow, 23 April, Monday

    Time Temperature Precipitation Wind Pressure Humidity
    00:00 +13°C° 0.1 mm 2 mps 686 mmHg 80%
    01:00 +13°C° 0.1 mm 2 mps 686 mmHg 81%
    02:00 +12°C° 0 mm 2 mps 686 mmHg 81%
    03:00 +12°C° 0 mm 2 mps 685 mmHg 82%
    04:00 +12°C° 0 mm 2 mps 685 mmHg 82%
    05:00 +13°C° 0 mm 2 mps 686 mmHg 81%
    06:00 +13°C° 0 mm 2 mps 686 mmHg 80%
    07:00 +14°C° 0 mm 2 mps 686 mmHg 79%
    08:00 +16°C° 0 mm 2 mps 686 mmHg 69%
    09:00 +19°C° 0 mm 2 mps 687 mmHg 58%
    10:00 +21°C° 0 mm 2 mps 687 mmHg 48%
    11:00 +21°C° 0.1 mm 3 mps 687 mmHg 48%
    12:00 +21°C° 0.1 mm 3 mps 687 mmHg 47%
    13:00 +22°C° 0.1 mm 3 mps 687 mmHg 47%
    14:00 +21°C° 0.4 mm 3 mps 687 mmHg 54%
    15:00 +19°C° 0.4 mm 3 mps 686 mmHg 61%
    16:00 +18°C° 0.4 mm 3 mps 686 mmHg 68%
    17:00 +17°C° 0.8 mm 3 mps 686 mmHg 76%
    18:00 +15°C° 0.8 mm 2 mps 686 mmHg 84%
    19:00 +14°C° 0.8 mm 2 mps 686 mmHg 92%
    20:00 +13°C° 0.7 mm 2 mps 686 mmHg 93%
    21:00 +13°C° 0.7 mm 2 mps 687 mmHg 94%
    22:00 +12°C° 0.7 mm 2 mps 687 mmHg 95%
    23:00 +10°C° 0.1 mm 2 mps 687 mmHg 95%

    Day after tomorrow, 24 April, Tuesday

    Time Temperature Precipitation Wind Pressure Humidity
    00:00 +10°C° 0.1 mm 2 mps 687 mmHg 94%
    01:00 +9°C° 0.1 mm 2 mps 686 mmHg 94%
    02:00 +10°C° 0 mm 1 mps 686 mmHg 94%
    03:00 +9°C° 0 mm 1 mps 686 mmHg 94%
    04:00 +9°C° 0 mm 1 mps 686 mmHg 93%
    05:00 +10°C° 0 mm 1 mps 686 mmHg 91%
    06:00 +11°C° 0 mm 1 mps 687 mmHg 90%
    07:00 +11°C° 0 mm 1 mps 687 mmHg 88%
    08:00 +14°C° 0 mm 1 mps 687 mmHg 77%
    09:00 +18°C° 0 mm 1 mps 688 mmHg 66%
    10:00 +20°C° 0 mm 1 mps 688 mmHg 55%
    11:00 +21°C° 0 mm 1 mps 688 mmHg 51%
    12:00 +22°C° 0 mm 1 mps 688 mmHg 48%
    13:00 +21°C° 0 mm 2 mps 688 mmHg 44%
    14:00 +21°C° 0 mm 2 mps 687 mmHg 46%
    15:00 +21°C° 0 mm 2 mps 687 mmHg 48%
    16:00 +21°C° 0 mm 2 mps 687 mmHg 50%
    17:00 +19°C° 0 mm 2 mps 686 mmHg 60%
    18:00 +18°C° 0 mm 1 mps 686 mmHg 70%
    19:00 +14°C° 0 mm 0 mps 685 mmHg 80%
    20:00 +14°C° 0 mm 1 mps 685 mmHg 82%
    21:00 +13°C° 0 mm 1 mps 686 mmHg 85%
    22:00 +12°C° 0 mm 1 mps 686 mmHg 88%
    23:00 +12°C° 0 mm 1 mps 685 mmHg 88%

    25 April, Wednesday

    Time Temperature Precipitation Wind Pressure Humidity
    00:00 +10°C° 0 mm 2 mps 685 mmHg 88%
    01:00 +10°C° 0 mm 2 mps 685 mmHg 87%
    02:00 +10°C° 0 mm 2 mps 685 mmHg 87%
    03:00 +10°C° 0 mm 2 mps 685 mmHg 86%
    04:00 +9°C° 0 mm 2 mps 684 mmHg 85%
    05:00 +12°C° 0 mm 2 mps 685 mmHg 81%
    06:00 +13°C° 0 mm 2 mps 685 mmHg 78%
    07:00 +14°C° 0 mm 2 mps 685 mmHg 74%
    08:00 +16°C° 0 mm 2 mps 685 mmHg 64%
    09:00 +19°C° 0 mm 2 mps 686 mmHg 54%
    10:00 +23°C° 0 mm 2 mps 686 mmHg 45%
    11:00 +22°C° 0 mm 3 mps 686 mmHg 43%
    12:00 +24°C° 0 mm 3 mps 686 mmHg 41%
    13:00 +24°C° 0 mm 3 mps 685 mmHg 39%
    14:00 +24°C° 0.1 mm 3 mps 685 mmHg 41%
    15:00 +24°C° 0.1 mm 3 mps 684 mmHg 44%
    16:00 +22°C° 0.1 mm 3 mps 684 mmHg 46%
    17:00 +20°C° 0.5 mm 3 mps 684 mmHg 58%
    18:00 +18°C° 0.5 mm 2 mps 683 mmHg 70%
    19:00 +16°C° 0.5 mm 2 mps 683 mmHg 82%
    20:00 +15°C° 0.7 mm 2 mps 684 mmHg 86%
    21:00 +14°C° 0.7 mm 2 mps 684 mmHg 90%
    22:00 +13°C° 0.7 mm 1 mps 684 mmHg 94%
    23:00 +12°C° 0.3 mm 1 mps 684 mmHg 95%

    26 April, Thursday

    Time Temperature Precipitation Wind Pressure Humidity
    00:00 +12°C° 0.3 mm 1 mps 684 mmHg 96%
    01:00 +12°C° 0.3 mm 1 mps 684 mmHg 97%
    02:00 +12°C° 0.1 mm 1 mps 684 mmHg 97%
    03:00 +12°C° 0.1 mm 1 mps 684 mmHg 97%
    04:00 +12°C° 0.1 mm 1 mps 684 mmHg 97%
    05:00 +12°C° 0.3 mm 1 mps 684 mmHg 96%
    06:00 +12°C° 0.3 mm 1 mps 684 mmHg 95%
    07:00 +12°C° 0.3 mm 1 mps 684 mmHg 95%
    08:00 +12°C° 1.2 mm 1 mps 684 mmHg 95%
    09:00 +10°C° 1.2 mm 2 mps 684 mmHg 95%
    10:00 +10°C° 1.2 mm 2 mps 684 mmHg 95%
    11:00 +9°C° 1.3 mm 2 mps 683 mmHg 95%
    12:00 +9°C° 1.3 mm 2 mps 683 mmHg 94%
    13:00 +9°C° 1.3 mm 2 mps 683 mmHg 94%
    14:00 +8°C° 1 mm 2 mps 683 mmHg 94%
    15:00 +8°C° 1 mm 2 mps 683 mmHg 95%
    16:00 +8°C° 1 mm 2 mps 683 mmHg 95%
    17:00 +8°C° 0.8 mm 2 mps 683 mmHg 95%
    18:00 +8°C° 0.8 mm 1 mps 683 mmHg 95%
    19:00 +8°C° 0.8 mm 1 mps 683 mmHg 95%
    20:00 +8°C° 0.5 mm 1 mps 684 mmHg 95%
    21:00 +8°C° 0.5 mm 1 mps 684 mmHg 95%
    22:00 +8°C° 0.5 mm 1 mps 684 mmHg 94%
    23:00 +7°C° 0.3 mm 1 mps 684 mmHg 94%

    27 April, Friday

    Time Temperature Precipitation Wind Pressure Humidity
    00:00 +7°C° 0.3 mm 1 mps 684 mmHg 94%
    01:00 +7°C° 0.3 mm 1 mps 684 mmHg 94%
    02:00 +6°C° 0.1 mm 1 mps 684 mmHg 94%
    03:00 +6°C° 0.1 mm 1 mps 684 mmHg 95%
    04:00 +6°C° 0.1 mm 1 mps 684 mmHg 95%
    05:00 +6°C° 0.1 mm 1 mps 684 mmHg 94%
    06:00 +6°C° 0.1 mm 1 mps 684 mmHg 93%
    07:00 +6°C° 0.1 mm 1 mps 684 mmHg 92%
    08:00 +8°C° 0.1 mm 1 mps 684 mmHg 86%
    09:00 +10°C° 0.1 mm 1 mps 684 mmHg 80%
    10:00 +11°C° 0.1 mm 1 mps 684 mmHg 73%
    11:00 +11°C° 0 mm 1 mps 683 mmHg 71%
    12:00 +12°C° 0 mm 1 mps 683 mmHg 68%
    13:00 +12°C° 0 mm 1 mps 682 mmHg 66%
    14:00 +12°C° 0 mm 2 mps 682 mmHg 67%
    15:00 +12°C° 0 mm 2 mps 682 mmHg 67%
    16:00 +12°C° 0 mm 2 mps 682 mmHg 68%
    17:00 +10°C° 0.1 mm 2 mps 682 mmHg 72%
    18:00 +9°C° 0.1 mm 2 mps 681 mmHg 77%
    19:00 +10°C° 0.1 mm 1 mps 681 mmHg 81%
    20:00 +9°C° 0.1 mm 1 mps 681 mmHg 83%
    21:00 +8°C° 0.1 mm 1 mps 681 mmHg 85%
    22:00 +7°C° 0.1 mm 1 mps 682 mmHg 88%
    23:00 +7°C° 0 mm 1 mps 681 mmHg 88%
    Show more